Time,TemperatureF,DewpointF,PressureIn,WindDirection,WindDirectionDegrees,WindSpeedMPH,WindSpeedGustMPH,Humidity,HourlyPrecipIn,Conditions,Clouds,dailyrainin,SolarRadiationWatts/m^2,SoftwareType,DateUTC
2013-05-12 00:01:00,59.6,56.4,29.95,NNW,346,4.6,4.6,89,0.00,RA,,0.00,0.0,WeatherDisplay:10.37,2013-05-12 04:01:00,
2013-05-12 00:06:00,59.4,56.2,29.95,NNW,346,9.0,9.0,89,0.00,RA,,0.00,0.0,WeatherDisplay:10.37,2013-05-12 04:06:00,
2013-05-12 00:11:00,59.4,55.8,29.94,North,355,9.2,9.2,88,0.00,CLR,,0.00,0.0,WeatherDisplay:10.37,2013-05-12 04:11:00,
2013-05-12 00:16:00,59.4,55.8,29.94,North,355,3.5,3.5,88,0.00,CLR,,0.00,0.0,WeatherDisplay:10.37,2013-05-12 04:16:00,
2013-05-12 00:21:00,59.2,55.6,29.94,North,355,4.6,4.6,88,0.00,CLR,,0.00,0.0,WeatherDisplay:10.37,2013-05-12 04:21:00,
2013-05-12 00:26:00,59.1,55.5,29.94,North,355,5.8,5.8,88,0.00,CLR,,0.00,0.0,WeatherDisplay:10.37,2013-05-12 04:26:00,
2013-05-12 00:31:00,58.9,55.0,29.94,North,360,6.9,6.9,87,0.00,CLR,,0.00,0.0,WeatherDisplay:10.37,2013-05-12 04:31:00,
2013-05-12 00:36:00,58.8,55.3,29.95,North,360,4.6,4.6,88,0.00,CLR,,0.00,0.0,WeatherDisplay:10.37,2013-05-12 04:36:00,
2013-05-12 00:41:00,58.6,55.1,29.95,North,360,6.9,6.9,88,0.00,CLR,,0.00,0.0,WeatherDisplay:10.37,2013-05-12 04:41:00,
2013-05-12 00:46:00,58.4,54.9,29.94,North,360,0.0,0.0,88,0.00,CLR,,0.00,0.0,WeatherDisplay:10.37,2013-05-12 04:46:00,
2013-05-12 00:51:00,58.2,54.7,29.94,North,360,4.0,4.0,88,0.00,CLR,,0.00,0.0,WeatherDisplay:10.37,2013-05-12 04:51:00,
2013-05-12 00:56:00,58.0,54.5,29.95,North,360,4.6,4.6,88,0.00,CLR,,0.00,0.0,WeatherDisplay:10.37,2013-05-12 04:56:00,
2013-05-12 01:01:00,57.7,54.2,29.94,North,360,3.5,3.5,88,0.00,CLR,,0.00,0.0,WeatherDisplay:10.37,2013-05-12 05:01:00,
2013-05-12 01:06:00,57.4,54.2,29.94,North,360,0.0,0.0,89,0.00,CLR,,0.00,0.0,WeatherDisplay:10.37,2013-05-12 05:06:00,
2013-05-12 01:11:00,57.1,53.9,29.94,North,360,3.5,3.5,89,0.00,CLR,,0.00,0.0,WeatherDisplay:10.37,2013-05-12 05:11:00,
2013-05-12 01:16:00,56.9,54.0,29.94,North,360,2.3,0.0,90,0.00,CLR,,0.00,0.0,WeatherDisplay:10.37,2013-05-12 05:16:00,
2013-05-12 01:21:00,56.6,53.7,29.94,North,360,0.0,0.0,90,0.00,CLR,,0.00,0.0,WeatherDisplay:10.37,2013-05-12 05:21:00,
2013-05-12 01:26:00,56.4,53.5,29.94,North,360,0.0,0.0,90,0.00,CLR,,0.00,0.0,WeatherDisplay:10.37,2013-05-12 05:26:00,
2013-05-12 01:31:00,56.1,53.2,29.95,North,360,0.0,0.0,90,0.00,CLR,,0.00,0.0,WeatherDisplay:10.37,2013-05-12 05:31:00,
2013-05-12 01:36:00,55.6,52.7,29.95,North,355,4.6,4.6,90,0.00,CLR,,0.00,0.0,WeatherDisplay:10.37,2013-05-12 05:36:00,
2013-05-12 01:41:00,55.4,51.9,29.94,NW,309,6.9,6.9,88,0.00,CLR,,0.00,0.0,WeatherDisplay:10.37,2013-05-12 05:41:00,
2013-05-12 01:47:00,55.4,51.9,29.95,WNW,300,3.5,3.5,88,0.00,CLR,,0.00,0.0,WeatherDisplay:10.37,2013-05-12 05:47:00,
2013-05-12 01:52:00,55.5,52.0,29.95,NW,311,9.2,9.2,88,0.00,CLR,,0.00,0.0,WeatherDisplay:10.37,2013-05-12 05:52:00,
2013-05-12 01:57:00,55.4,51.9,29.95,NW,317,11.5,11.5,88,0.00,CLR,,0.00,0.0,WeatherDisplay:10.37,2013-05-12 05:57:00,
2013-05-12 02:02:00,55.6,51.8,29.95,North,360,15.0,15.0,87,0.00,CLR,,0.00,0.0,WeatherDisplay:10.37,2013-05-12 06:02:00,
2013-05-12 02:07:00,55.7,51.3,29.95,North,360,4.0,4.0,85,0.00,CLR,,0.00,0.0,WeatherDisplay:10.37,2013-05-12 06:07:00,
2013-05-12 02:12:00,55.8,51.7,29.95,North,360,3.5,3.5,86,0.00,CLR,,0.00,0.0,WeatherDisplay:10.37,2013-05-12 06:12:00,
2013-05-12 02:17:00,55.6,51.5,29.95,North,5,5.8,5.8,86,0.00,CLR,,0.00,0.0,WeatherDisplay:10.37,2013-05-12 06:17:00,
2013-05-12 02:22:00,55.6,51.2,29.95,NNW,348,11.5,11.5,85,0.00,CLR,,0.00,0.0,WeatherDisplay:10.37,2013-05-12 06:22:00,
2013-05-12 02:27:00,55.7,50.9,29.95,North,360,15.0,15.0,84,0.00,CLR,,0.00,0.0,WeatherDisplay:10.37,2013-05-12 06:27:00,
2013-05-12 02:32:00,55.8,51.0,29.94,North,351,9.2,9.2,84,0.00,CLR,,0.00,0.0,WeatherDisplay:10.37,2013-05-12 06:32:00,
2013-05-12 02:37:00,55.7,50.6,29.94,North,351,7.0,7.0,83,0.00,CLR,,0.00,0.0,WeatherDisplay:10.37,2013-05-12 06:37:00,
2013-05-12 02:42:00,55.5,50.4,29.94,NNW,331,10.4,10.4,83,0.00,CLR,,0.00,0.0,WeatherDisplay:10.37,2013-05-12 06:42:00,
2013-05-12 02:47:00,55.3,50.2,29.94,North,355,7.0,7.0,83,0.00,CLR,,0.00,0.0,WeatherDisplay:10.37,2013-05-12 06:47:00,
2013-05-12 02:52:00,55.4,49.7,29.94,NNW,343,12.7,12.7,81,0.00,CLR,,0.00,0.0,WeatherDisplay:10.37,2013-05-12 06:52:00,
2013-05-12 02:57:00,55.3,49.9,29.94,NNE,13,4.6,4.6,82,0.00,CLR,,0.00,0.0,WeatherDisplay:10.37,2013-05-12 06:57:00,
2013-05-12 03:02:00,55.1,49.4,29.94,NNW,334,6.0,6.0,81,0.00,CLR,,0.00,0.0,WeatherDisplay:10.37,2013-05-12 07:02:00,
2013-05-12 03:07:00,54.9,49.5,29.94,North,11,3.5,3.5,82,0.00,CLR,,0.00,0.0,WeatherDisplay:10.37,2013-05-12 07:07:00,
2013-05-12 03:12:00,55.0,48.9,29.94,North,11,11.5,11.5,80,0.00,CLR,,0.00,0.0,WeatherDisplay:10.37,2013-05-12 07:12:00,
2013-05-12 03:17:00,55.1,49.0,29.93,North,9,4.6,4.6,80,0.00,CLR,,0.00,0.0,WeatherDisplay:10.37,2013-05-12 07:17:00,
2013-05-12 03:22:00,55.1,48.4,29.94,NNE,12,6.0,6.0,78,0.00,CLR,,0.00,0.0,WeatherDisplay:10.37,2013-05-12 07:22:00,
2013-05-12 03:27:00,55.2,48.5,29.93,NE,39,4.6,4.6,78,0.00,CLR,,0.00,0.0,WeatherDisplay:10.37,2013-05-12 07:27:00,
2013-05-12 03:32:00,55.2,48.8,29.93,NNE,28,2.3,0.0,79,0.00,CLR,,0.00,0.0,WeatherDisplay:10.37,2013-05-12 07:32:00,
2013-05-12 03:37:00,54.9,48.5,29.93,NNW,341,5.8,5.8,79,0.00,CLR,,0.00,0.0,WeatherDisplay:10.37,2013-05-12 07:37:00,
2013-05-12 03:42:00,55.0,47.9,29.93,NNW,348,5.8,5.8,77,0.00,CLR,,0.00,0.0,WeatherDisplay:10.37,2013-05-12 07:42:00,
2013-05-12 03:47:00,55.1,48.4,29.93,NW,311,8.1,8.1,78,0.00,CLR,,0.00,0.0,WeatherDisplay:10.37,2013-05-12 07:47:00,
2013-05-12 03:52:00,55.2,48.1,29.94,North,360,11.5,11.5,77,0.00,CLR,,0.00,0.0,WeatherDisplay:10.37,2013-05-12 07:52:00,
2013-05-12 03:57:00,55.3,48.2,29.94,North,5,9.2,9.2,77,0.00,CLR,,0.00,0.0,WeatherDisplay:10.37,2013-05-12 07:57:00,
2013-05-12 04:02:00,55.3,48.6,29.93,North,355,10.0,10.0,78,0.00,CLR,,0.00,0.0,WeatherDisplay:10.37,2013-05-12 08:02:00,
2013-05-12 04:07:00,55.3,48.6,29.94,NNE,22,3.5,3.5,78,0.00,CLR,,0.00,0.0,WeatherDisplay:10.37,2013-05-12 08:07:00,
2013-05-12 04:12:00,55.0,48.3,29.94,NNW,347,9.2,9.2,78,0.00,CLR,,0.00,0.0,WeatherDisplay:10.37,2013-05-12 08:12:00,
2013-05-12 04:17:00,54.8,48.4,29.94,NNW,340,11.5,11.5,79,0.00,CLR,,0.00,0.0,WeatherDisplay:10.37,2013-05-12 08:17:00,
2013-05-12 04:22:00,55.0,48.6,29.94,NNE,25,13.0,13.0,79,0.00,CLR,,0.00,0.0,WeatherDisplay:10.37,2013-05-12 08:22:00,
2013-05-12 04:27:00,55.0,48.9,29.95,NNE,22,15.0,15.0,80,0.00,CLR,,0.00,0.0,WeatherDisplay:10.37,2013-05-12 08:27:00,
2013-05-12 04:32:00,55.1,48.7,29.95,North,355,16.1,16.1,79,0.00,CLR,,0.00,0.0,WeatherDisplay:10.37,2013-05-12 08:32:00,
2013-05-12 04:37:00,55.1,49.0,29.95,NE,44,12.7,12.7,80,0.00,CLR,,0.00,0.0,WeatherDisplay:10.37,2013-05-12 08:37:00,
2013-05-12 04:42:00,54.8,49.1,29.95,NE,51,8.1,8.1,81,0.00,CLR,,0.00,0.0,WeatherDisplay:10.37,2013-05-12 08:42:00,
2013-05-12 04:47:00,54.7,49.0,29.95,NE,40,14.0,14.0,81,0.00,CLR,,0.00,0.0,WeatherDisplay:10.37,2013-05-12 08:47:00,
2013-05-12 04:52:00,54.6,48.9,29.95,NE,53,17.3,17.3,81,0.00,CLR,,0.00,0.0,WeatherDisplay:10.37,2013-05-12 08:52:00,
2013-05-12 04:57:00,54.6,48.9,29.95,ENE,63,3.5,3.5,81,0.00,CLR,,0.00,0.0,WeatherDisplay:10.37,2013-05-12 08:57:00,
2013-05-12 05:02:00,54.4,48.7,29.95,ENE,68,3.5,3.5,81,0.00,CLR,,0.00,0.0,WeatherDisplay:10.37,2013-05-12 09:02:00,
2013-05-12 05:07:00,54.3,48.6,29.94,ENE,71,6.0,6.0,81,0.00,CLR,,0.00,0.0,WeatherDisplay:10.37,2013-05-12 09:07:00,
2013-05-12 05:12:00,54.0,48.3,29.95,East,88,3.5,3.5,81,0.00,CLR,,0.00,0.0,WeatherDisplay:10.37,2013-05-12 09:12:00,
2013-05-12 05:17:00,53.8,48.8,29.95,East,88,0.0,0.0,83,0.00,CLR,,0.00,0.0,WeatherDisplay:10.37,2013-05-12 09:17:00,
2013-05-12 05:22:00,53.5,48.5,29.95,NNE,23,7.0,7.0,83,0.00,CLR,,0.00,0.0,WeatherDisplay:10.37,2013-05-12 09:22:00,
2013-05-12 05:27:00,53.3,47.9,29.95,North,349,0.0,0.0,82,0.00,CLR,,0.00,0.0,WeatherDisplay:10.37,2013-05-12 09:27:00,
2013-05-12 05:32:00,53.3,48.3,29.96,North,349,4.6,4.6,83,0.00,CLR,,0.00,0.0,WeatherDisplay:10.37,2013-05-12 09:32:00,
2013-05-12 05:37:00,53.0,48.0,29.96,NW,304,9.0,9.0,83,0.00,CLR,,0.00,0.0,WeatherDisplay:10.37,2013-05-12 09:37:00,
2013-05-12 05:42:00,53.1,47.7,29.96,NW,324,0.0,0.0,82,0.00,CLR,,0.00,0.0,WeatherDisplay:10.37,2013-05-12 09:42:00,
2013-05-12 05:47:00,53.5,47.8,29.96,North,5,9.2,9.2,81,0.00,CLR,,0.00,0.0,WeatherDisplay:10.37,2013-05-12 09:47:00,
2013-05-12 05:52:00,53.7,48.0,29.96,North,5,7.0,7.0,81,0.00,CLR,,0.00,0.0,WeatherDisplay:10.37,2013-05-12 09:52:00,
2013-05-12 05:57:00,53.8,48.1,29.96,North,355,6.9,6.9,81,0.00,CLR,,0.00,0.0,WeatherDisplay:10.37,2013-05-12 09:57:00,
2013-05-12 06:02:00,53.8,48.4,29.96,North,360,9.2,9.2,82,0.00,CLR,,0.00,0.0,WeatherDisplay:10.37,2013-05-12 10:02:00,
2013-05-12 06:07:00,53.8,48.4,29.97,North,355,3.5,3.5,82,0.00,CLR,,0.00,0.0,WeatherDisplay:10.37,2013-05-12 10:07:00,
2013-05-12 06:12:00,53.7,48.3,29.97,North,355,3.5,3.5,82,0.00,CLR,,0.00,0.0,WeatherDisplay:10.37,2013-05-12 10:12:00,
2013-05-12 06:17:00,53.6,48.6,29.97,North,355,0.0,0.0,83,0.00,CLR,,0.00,0.0,WeatherDisplay:10.37,2013-05-12 10:17:00,
2013-05-12 06:22:00,53.5,48.8,29.97,North,355,0.0,0.0,84,0.00,CLR,,0.00,0.0,WeatherDisplay:10.37,2013-05-12 10:22:00,
2013-05-12 06:27:00,53.7,49.3,29.97,North,355,5.8,5.8,85,0.00,CLR,,0.00,0.0,WeatherDisplay:10.37,2013-05-12 10:27:00,
2013-05-12 06:32:00,53.8,49.4,29.97,North,350,11.5,11.5,85,0.00,CLR,,0.00,0.0,WeatherDisplay:10.37,2013-05-12 10:32:00,
2013-05-12 06:37:00,54.0,49.6,29.97,NNE,32,3.5,3.5,85,0.00,CLR,,0.00,0.0,WeatherDisplay:10.37,2013-05-12 10:37:00,
2013-05-12 06:42:00,54.0,49.3,29.98,NNE,31,5.8,5.8,84,0.00,CLR,,0.00,0.0,WeatherDisplay:10.37,2013-05-12 10:42:00,
2013-05-12 06:47:00,54.0,49.6,29.98,NNE,29,2.3,2.3,85,0.00,CLR,,0.00,7.0,WeatherDisplay:10.37,2013-05-12 10:47:00,
2013-05-12 06:52:00,54.1,50.0,29.99,NNE,31,13.8,13.8,86,0.00,CLR,,0.00,11.0,WeatherDisplay:10.37,2013-05-12 10:52:00,
2013-05-12 06:57:00,54.2,49.8,29.99,NNE,17,12.7,12.7,85,0.00,CLR,,0.00,18.0,WeatherDisplay:10.37,2013-05-12 10:57:00,
2013-05-12 07:02:00,54.3,49.9,29.99,NNE,17,0.0,0.0,85,0.00,CLR,,0.00,21.0,WeatherDisplay:10.37,2013-05-12 11:02:00,
2013-05-12 07:07:00,54.4,50.0,29.99,NNE,13,5.8,5.8,85,0.00,CLR,,0.00,21.0,WeatherDisplay:10.37,2013-05-12 11:07:00,
2013-05-12 07:12:00,54.4,50.0,29.99,NNE,13,4.6,4.6,85,0.00,CLR,,0.00,26.0,WeatherDisplay:10.37,2013-05-12 11:12:00,
2013-05-12 07:17:00,54.5,50.4,29.99,North,360,16.1,16.1,86,0.00,CLR,,0.00,33.0,WeatherDisplay:10.37,2013-05-12 11:17:00,
2013-05-12 07:22:00,54.6,50.5,29.99,North,5,9.2,9.2,86,0.00,CLR,,0.00,37.0,WeatherDisplay:10.37,2013-05-12 11:22:00,
2013-05-12 07:27:00,54.7,50.3,30.00,NNW,346,12.7,12.7,85,0.00,CLR,,0.00,42.0,WeatherDisplay:10.37,2013-05-12 11:27:00,
2013-05-12 07:32:00,54.8,50.4,30.00,North,350,10.4,10.4,85,0.00,CLR,,0.00,33.0,WeatherDisplay:10.37,2013-05-12 11:32:00,
2013-05-12 07:37:00,54.8,50.4,30.00,North,350,3.5,3.5,85,0.00,CLR,,0.00,65.0,WeatherDisplay:10.37,2013-05-12 11:37:00,
2013-05-12 07:42:00,54.8,50.4,30.00,WNW,282,4.6,4.6,85,0.00,CLR,,0.00,46.0,WeatherDisplay:10.37,2013-05-12 11:42:00,
2013-05-12 07:47:00,54.8,50.4,30.01,WNW,298,0.0,0.0,85,0.00,CLR,,0.00,35.0,WeatherDisplay:10.37,2013-05-12 11:47:00,
2013-05-12 07:52:00,54.8,50.4,30.01,NW,325,9.2,9.2,85,0.00,CLR,,0.00,51.0,WeatherDisplay:10.37,2013-05-12 11:52:00,
2013-05-12 07:57:00,54.8,50.4,30.01,NNW,333,7.0,7.0,85,0.00,CLR,,0.00,58.0,WeatherDisplay:10.37,2013-05-12 11:57:00,
2013-05-12 08:02:00,54.8,50.4,30.01,NNW,341,9.2,9.2,85,0.00,OVC,,0.00,105.0,WeatherDisplay:10.37,2013-05-12 12:02:00,
2013-05-12 08:07:00,54.8,50.7,30.01,NNW,340,4.6,4.6,86,0.00,OVC,,0.00,91.0,WeatherDisplay:10.37,2013-05-12 12:07:00,
2013-05-12 08:12:00,54.8,50.4,30.01,NNW,340,0.0,0.0,85,0.00,OVC,,0.00,121.0,WeatherDisplay:10.37,2013-05-12 12:12:00,
2013-05-12 08:17:00,54.9,50.5,30.01,NNW,340,0.0,0.0,85,0.00,OVC,,0.00,121.0,WeatherDisplay:10.37,2013-05-12 12:17:00,
2013-05-12 08:22:00,55.0,50.6,30.02,NNW,340,2.0,2.0,85,0.00,OVC,,0.00,313.0,WeatherDisplay:10.37,2013-05-12 12:22:00,
2013-05-12 08:27:00,55.3,50.5,30.02,NNW,342,9.2,9.2,84,0.00,OVC,,0.00,287.0,WeatherDisplay:10.37,2013-05-12 12:27:00,
2013-05-12 08:32:00,55.5,50.7,30.02,NNE,26,13.8,13.8,84,0.00,OVC,,0.00,339.0,WeatherDisplay:10.37,2013-05-12 12:32:00,
2013-05-12 08:37:00,55.8,50.7,30.02,NNE,30,12.7,12.7,83,0.00,OVC,,0.00,311.0,WeatherDisplay:10.37,2013-05-12 12:37:00,
2013-05-12 08:42:00,55.6,50.2,30.02,NNE,22,6.9,6.9,82,0.00,OVC,,0.00,160.0,WeatherDisplay:10.37,2013-05-12 12:42:00,
2013-05-12 08:47:00,55.6,50.8,30.02,NNE,22,4.6,4.6,84,0.00,OVC,,0.00,411.0,WeatherDisplay:10.37,2013-05-12 12:47:00,
2013-05-12 08:52:00,55.8,50.1,30.02,North,11,5.8,5.8,81,0.00,OVC,,0.00,127.0,WeatherDisplay:10.37,2013-05-12 12:52:00,
2013-05-12 08:58:00,55.7,49.6,30.02,NNE,33,4.6,4.6,80,0.00,OVC,,0.00,448.0,WeatherDisplay:10.37,2013-05-12 12:58:00,
2013-05-12 09:03:00,55.9,50.5,30.03,NNE,17,8.0,8.0,82,0.00,OVC,,0.00,410.0,WeatherDisplay:10.37,2013-05-12 13:03:00,
2013-05-12 09:08:00,56.0,49.9,30.03,North,350,11.5,11.5,80,0.00,OVC,,0.00,425.0,WeatherDisplay:10.37,2013-05-12 13:08:00,
2013-05-12 09:13:00,56.2,49.8,30.03,NE,34,11.5,11.5,79,0.00,OVC,,0.00,443.0,WeatherDisplay:10.37,2013-05-12 13:13:00,
2013-05-12 09:18:00,56.3,49.2,30.03,North,355,10.4,10.4,77,0.00,OVC,,0.00,464.0,WeatherDisplay:10.37,2013-05-12 13:18:00,
2013-05-12 09:23:00,56.3,49.5,30.03,North,349,4.0,4.0,78,0.00,OVC,,0.00,482.0,WeatherDisplay:10.37,2013-05-12 13:23:00,
2013-05-12 09:28:00,56.7,49.6,30.03,NE,36,10.4,10.4,77,0.00,OVC,,0.00,501.0,WeatherDisplay:10.37,2013-05-12 13:28:00,
2013-05-12 09:33:00,57.0,49.9,30.03,NNE,31,6.0,6.0,77,0.00,OVC,,0.00,517.0,WeatherDisplay:10.37,2013-05-12 13:33:00,
2013-05-12 09:38:00,57.3,49.8,30.03,NE,36,5.0,5.0,76,0.00,OVC,,0.00,550.0,WeatherDisplay:10.37,2013-05-12 13:38:00,
2013-05-12 09:43:00,57.5,49.3,30.03,NE,41,8.1,8.1,74,0.00,OVC,,0.00,555.0,WeatherDisplay:10.37,2013-05-12 13:43:00,
2013-05-12 09:48:00,57.5,48.9,30.03,North,360,6.9,6.9,73,0.00,OVC,,0.00,573.0,WeatherDisplay:10.37,2013-05-12 13:48:00,
2013-05-12 09:53:00,57.5,48.9,30.03,North,360,4.6,4.6,73,0.00,OVC,,0.00,591.0,WeatherDisplay:10.37,2013-05-12 13:53:00,
2013-05-12 09:58:00,57.6,47.5,30.03,NNW,335,15.0,15.0,69,0.00,OVC,,0.00,605.0,WeatherDisplay:10.37,2013-05-12 13:58:00,
2013-05-12 10:03:00,57.6,45.5,30.03,North,9,17.3,17.3,64,0.00,OVC,,0.00,628.0,WeatherDisplay:10.37,2013-05-12 14:03:00,
2013-05-12 10:08:00,57.5,45.4,30.03,North,360,10.4,10.4,64,0.00,OVC,,0.00,645.0,WeatherDisplay:10.37,2013-05-12 14:08:00,
2013-05-12 10:13:00,57.5,45.8,30.03,NNW,340,9.0,9.0,65,0.00,OVC,,0.00,659.0,WeatherDisplay:10.37,2013-05-12 14:13:00,
2013-05-12 10:18:00,57.7,45.6,30.04,North,355,11.5,11.5,64,0.00,OVC,,0.00,675.0,WeatherDisplay:10.37,2013-05-12 14:18:00,
2013-05-12 10:23:00,58.0,48.3,30.03,West,266,9.2,9.2,70,0.00,OVC,,0.00,689.0,WeatherDisplay:10.37,2013-05-12 14:23:00,
2013-05-12 10:28:00,58.6,48.8,30.04,NNW,329,7.0,7.0,70,0.00,OVC,,0.00,705.0,WeatherDisplay:10.37,2013-05-12 14:28:00,
2013-05-12 10:33:00,58.6,46.5,30.04,WNW,299,11.5,11.5,64,0.00,OVC,,0.00,721.0,WeatherDisplay:10.37,2013-05-12 14:33:00,
2013-05-12 10:38:00,58.7,46.5,30.05,NNW,336,13.0,13.0,64,0.00,OVC,,0.00,737.0,WeatherDisplay:10.37,2013-05-12 14:38:00,
2013-05-12 10:43:00,58.7,46.1,30.05,NNW,346,11.0,11.0,63,0.00,OVC,,0.00,752.0,WeatherDisplay:10.37,2013-05-12 14:43:00,
2013-05-12 10:48:00,58.7,47.0,30.05,NNW,346,4.0,4.2,65,0.00,OVC,,0.00,770.0,WeatherDisplay:10.37,2013-05-12 14:48:00,
2013-05-12 10:53:00,59.1,46.9,30.05,NNW,335,4.6,4.6,64,0.00,OVC,,0.00,784.0,WeatherDisplay:10.37,2013-05-12 14:53:00,
2013-05-12 10:58:00,59.6,47.4,30.05,North,355,3.5,3.5,64,0.00,OVC,,0.00,791.0,WeatherDisplay:10.37,2013-05-12 14:58:00,
2013-05-12 11:03:00,60.0,47.8,30.05,NW,320,11.5,11.5,64,0.00,OVC,,0.00,807.0,WeatherDisplay:10.37,2013-05-12 15:03:00,
2013-05-12 11:08:00,60.3,47.6,30.05,West,279,11.5,11.5,63,0.00,OVC,,0.00,824.0,WeatherDisplay:10.37,2013-05-12 15:08:00,
2013-05-12 11:13:00,60.6,49.2,30.05,WSW,252,12.7,12.7,66,0.00,OVC,,0.00,831.0,WeatherDisplay:10.37,2013-05-12 15:13:00,
2013-05-12 11:18:00,60.7,48.0,30.05,WNW,296,12.7,12.7,63,0.00,OVC,,0.00,846.0,WeatherDisplay:10.37,2013-05-12 15:18:00,
2013-05-12 11:23:00,60.6,46.2,30.06,NW,313,11.0,11.0,59,0.00,OVC,,0.00,861.0,WeatherDisplay:10.37,2013-05-12 15:23:00,
2013-05-12 11:28:00,60.7,45.4,30.06,WNW,303,8.1,8.1,57,0.00,OVC,,0.00,867.0,WeatherDisplay:10.37,2013-05-12 15:28:00,
2013-05-12 11:33:00,61.1,48.4,30.06,WNW,288,11.5,11.5,63,0.00,OVC,,0.00,877.0,WeatherDisplay:10.37,2013-05-12 15:33:00,
2013-05-12 11:38:00,61.1,44.3,30.06,WNW,292,19.6,19.6,54,0.00,CLR,,0.00,888.0,WeatherDisplay:10.37,2013-05-12 15:38:00,
2013-05-12 11:43:00,61.0,46.1,30.06,NNW,340,19.6,19.6,58,0.00,CLR,,0.00,898.0,WeatherDisplay:10.37,2013-05-12 15:43:00,
2013-05-12 11:48:00,60.8,45.5,30.06,NNW,327,13.0,13.0,57,0.00,CLR,,0.00,914.0,WeatherDisplay:10.37,2013-05-12 15:48:00,
2013-05-12 11:53:00,60.6,44.3,30.05,NW,304,18.4,18.4,55,0.00,CLR,,0.00,925.0,WeatherDisplay:10.37,2013-05-12 15:53:00,
2013-05-12 11:58:00,60.5,44.2,30.06,NNW,340,17.3,17.3,55,0.00,CLR,,0.00,926.0,WeatherDisplay:10.37,2013-05-12 15:58:00,
2013-05-12 12:03:00,60.7,47.6,30.06,NNW,336,9.2,9.2,62,0.00,CLR,,0.00,926.0,WeatherDisplay:10.37,2013-05-12 16:03:00,
2013-05-12 12:08:00,61.2,48.9,30.06,NNW,345,16.0,16.0,64,0.00,CLR,,0.00,935.0,WeatherDisplay:10.37,2013-05-12 16:08:00,
2013-05-12 12:13:00,61.4,46.9,30.05,NW,325,11.5,11.5,59,0.00,CLR,,0.00,944.0,WeatherDisplay:10.37,2013-05-12 16:13:00,
2013-05-12 12:18:00,61.7,48.1,30.05,WNW,290,11.5,11.5,61,0.00,CLR,,0.00,962.0,WeatherDisplay:10.37,2013-05-12 16:18:00,
2013-05-12 12:23:00,62.0,48.4,30.05,West,272,15.0,15.0,61,0.00,CLR,,0.00,972.0,WeatherDisplay:10.37,2013-05-12 16:23:00,
2013-05-12 12:28:00,62.0,46.1,30.05,West,278,11.5,11.5,56,0.00,CLR,,0.00,972.0,WeatherDisplay:10.37,2013-05-12 16:28:00,
2013-05-12 12:33:00,62.2,45.8,30.05,West,270,15.0,15.0,55,0.00,CLR,,0.00,986.0,WeatherDisplay:10.37,2013-05-12 16:33:00,
2013-05-12 12:38:00,62.2,43.3,30.05,North,355,17.3,17.3,50,0.00,CLR,,0.00,984.0,WeatherDisplay:10.37,2013-05-12 16:38:00,
2013-05-12 12:43:00,62.2,43.8,30.05,NNW,332,20.7,20.7,51,0.00,CLR,,0.00,995.0,WeatherDisplay:10.37,2013-05-12 16:43:00,
2013-05-12 12:48:00,62.1,44.3,30.05,West,277,16.1,16.1,52,0.00,CLR,,0.00,1002.0,WeatherDisplay:10.37,2013-05-12 16:48:00,
2013-05-12 12:53:00,62.2,43.8,30.05,WNW,302,15.0,15.0,51,0.00,CLR,,0.00,1000.0,WeatherDisplay:10.37,2013-05-12 16:53:00,
2013-05-12 12:58:00,62.5,44.1,30.05,West,277,16.1,16.1,51,0.00,CLR,,0.00,1005.0,WeatherDisplay:10.37,2013-05-12 16:58:00,
2013-05-12 13:03:00,62.8,44.9,30.05,WNW,290,15.0,15.0,52,0.00,CLR,,0.00,1011.0,WeatherDisplay:10.37,2013-05-12 17:03:00,
2013-05-12 13:08:00,63.1,44.2,30.05,WNW,288,10.4,10.4,50,0.00,CLR,,0.00,1013.0,WeatherDisplay:10.37,2013-05-12 17:08:00,
2013-05-12 13:13:00,63.0,42.4,30.05,West,260,19.6,19.6,47,0.00,CLR,,0.00,1016.0,WeatherDisplay:10.37,2013-05-12 17:13:00,
2013-05-12 13:18:00,62.9,42.9,30.04,West,265,16.0,16.0,48,0.00,CLR,,0.00,1021.0,WeatherDisplay:10.37,2013-05-12 17:18:00,
2013-05-12 13:23:00,62.9,45.5,30.05,West,269,16.0,16.0,53,0.00,CLR,,0.00,1016.0,WeatherDisplay:10.37,2013-05-12 17:23:00,
2013-05-12 13:28:00,62.8,44.4,30.05,WNW,286,24.2,24.2,51,0.00,CLR,,0.00,1023.0,WeatherDisplay:10.37,2013-05-12 17:28:00,
2013-05-12 13:33:00,62.6,44.7,30.05,WNW,292,15.0,15.0,52,0.00,CLR,,0.00,1018.0,WeatherDisplay:10.37,2013-05-12 17:33:00,
2013-05-12 13:38:00,62.6,43.2,30.04,West,268,20.7,20.7,49,0.00,CLR,,0.00,1023.0,WeatherDisplay:10.37,2013-05-12 17:38:00,
2013-05-12 13:43:00,62.7,45.3,30.04,WNW,283,19.6,19.6,53,0.00,CLR,,0.00,1020.0,WeatherDisplay:10.37,2013-05-12 17:43:00,
2013-05-12 13:48:00,63.0,44.1,30.04,West,277,19.6,19.6,50,0.00,CLR,,0.00,1016.0,WeatherDisplay:10.37,2013-05-12 17:48:00,
2013-05-12 13:53:00,63.0,46.1,30.04,West,269,13.0,13.0,54,0.00,CLR,,0.00,1020.0,WeatherDisplay:10.37,2013-05-12 17:53:00,
2013-05-12 13:58:00,63.2,42.6,30.03,WNW,294,11.5,11.5,47,0.00,CLR,,0.00,1020.0,WeatherDisplay:10.37,2013-05-12 17:58:00,
2013-05-12 14:03:00,63.4,43.9,30.03,NW,309,11.5,11.5,49,0.00,CLR,,0.00,1018.0,WeatherDisplay:10.37,2013-05-12 18:03:00,
2013-05-12 14:08:00,63.6,45.6,30.04,WNW,291,20.7,20.7,52,0.00,CLR,,0.00,1014.0,WeatherDisplay:10.37,2013-05-12 18:08:00,
2013-05-12 14:13:00,63.8,45.8,30.03,NNW,329,16.1,16.1,52,0.00,CLR,,0.00,1013.0,WeatherDisplay:10.37,2013-05-12 18:13:00,
2013-05-12 14:18:00,63.8,42.0,30.03,NW,315,9.2,9.2,45,0.00,CLR,,0.00,1007.0,WeatherDisplay:10.37,2013-05-12 18:18:00,
2013-05-12 14:23:00,63.8,44.8,30.03,NW,315,16.1,16.1,50,0.00,CLR,,0.00,1000.0,WeatherDisplay:10.37,2013-05-12 18:23:00,
2013-05-12 14:28:00,63.6,46.1,30.03,West,277,16.1,16.1,53,0.00,CLR,,0.00,995.0,WeatherDisplay:10.37,2013-05-12 18:28:00,
2013-05-12 14:33:00,63.5,45.0,30.03,West,271,16.1,16.1,51,0.00,CLR,,0.00,993.0,WeatherDisplay:10.37,2013-05-12 18:33:00,
2013-05-12 14:38:00,63.2,41.5,30.03,NW,308,15.0,15.0,45,0.00,CLR,,0.00,997.0,WeatherDisplay:10.37,2013-05-12 18:38:00,
2013-05-12 14:43:00,63.4,44.4,30.03,WNW,288,19.6,19.6,50,0.00,CLR,,0.00,983.0,WeatherDisplay:10.37,2013-05-12 18:43:00,
2013-05-12 14:48:00,63.4,44.4,30.03,WNW,285,25.3,25.3,50,0.00,CLR,,0.00,984.0,WeatherDisplay:10.37,2013-05-12 18:48:00,
2013-05-12 14:53:00,63.3,42.7,30.03,WNW,282,15.0,15.0,47,0.00,CLR,,0.00,974.0,WeatherDisplay:10.37,2013-05-12 18:53:00,
2013-05-12 14:58:00,63.4,44.4,30.03,West,259,19.6,19.6,50,0.00,CLR,,0.00,963.0,WeatherDisplay:10.37,2013-05-12 18:58:00,
2013-05-12 15:03:00,63.5,43.4,30.03,West,263,19.6,19.6,48,0.00,CLR,,0.00,958.0,WeatherDisplay:10.37,2013-05-12 19:03:00,
2013-05-12 15:08:00,63.3,44.3,30.02,NW,321,17.0,17.0,50,0.00,CLR,,0.00,953.0,WeatherDisplay:10.37,2013-05-12 19:08:00,
2013-05-12 15:13:00,63.6,46.1,30.03,NW,320,9.2,9.2,53,0.00,CLR,,0.00,944.0,WeatherDisplay:10.37,2013-05-12 19:13:00,
2013-05-12 15:18:00,64.0,46.5,30.02,NW,326,15.0,15.0,53,0.00,CLR,,0.00,937.0,WeatherDisplay:10.37,2013-05-12 19:18:00,
2013-05-12 15:23:00,64.5,45.4,30.02,NW,306,8.1,8.1,50,0.00,CLR,,0.00,932.0,WeatherDisplay:10.37,2013-05-12 19:23:00,
2013-05-12 15:28:00,64.3,42.5,30.02,WNW,300,19.6,19.6,45,0.00,CLR,,0.00,919.0,WeatherDisplay:10.37,2013-05-12 19:28:00,
2013-05-12 15:33:00,64.0,45.5,30.02,WSW,257,10.4,10.4,51,0.00,CLR,,0.00,916.0,WeatherDisplay:10.37,2013-05-12 19:33:00,
2013-05-12 15:38:00,64.1,41.1,30.02,WNW,290,11.5,11.5,43,0.00,CLR,,0.00,893.0,WeatherDisplay:10.37,2013-05-12 19:38:00,
2013-05-12 15:43:00,64.0,43.4,30.02,WNW,292,11.5,11.5,47,0.00,CLR,,0.00,888.0,WeatherDisplay:10.37,2013-05-12 19:43:00,
2013-05-12 15:48:00,64.1,44.0,30.01,West,261,17.3,17.3,48,0.00,CLR,,0.00,877.0,WeatherDisplay:10.37,2013-05-12 19:48:00,
2013-05-12 15:53:00,64.2,44.6,30.02,WNW,299,17.3,17.3,49,0.00,CLR,,0.00,870.0,WeatherDisplay:10.37,2013-05-12 19:53:00,
2013-05-12 15:58:00,64.1,42.9,30.02,West,267,15.0,15.0,46,0.00,CLR,,0.00,854.0,WeatherDisplay:10.37,2013-05-12 19:58:00,
2013-05-12 16:03:00,64.0,45.0,30.01,WNW,297,18.0,18.0,50,0.00,CLR,,0.00,854.0,WeatherDisplay:10.37,2013-05-12 20:03:00,
2013-05-12 16:08:00,64.2,43.0,30.01,NNW,335,7.0,7.0,46,0.00,CLR,,0.00,837.0,WeatherDisplay:10.37,2013-05-12 20:08:00,
2013-05-12 16:13:00,64.6,39.7,30.02,WNW,298,18.4,18.4,40,0.00,CLR,,0.00,826.0,WeatherDisplay:10.37,2013-05-12 20:13:00,
2013-05-12 16:18:00,64.7,39.8,30.01,WNW,291,12.7,12.7,40,0.00,CLR,,0.00,817.0,WeatherDisplay:10.37,2013-05-12 20:18:00,
2013-05-12 16:23:00,64.7,39.8,30.02,WNW,294,19.6,19.6,40,0.00,CLR,,0.00,807.0,WeatherDisplay:10.37,2013-05-12 20:23:00,
2013-05-12 16:28:00,64.4,36.1,30.02,NNW,346,16.1,16.1,35,0.00,FEW,,0.00,788.0,WeatherDisplay:10.37,2013-05-12 20:28:00,
2013-05-12 16:33:00,64.2,41.2,30.02,WNW,286,16.1,16.1,43,0.00,FEW,,0.00,772.0,WeatherDisplay:10.37,2013-05-12 20:33:00,
2013-05-12 16:38:00,64.1,43.4,30.02,WNW,292,12.7,12.7,47,0.00,FEW,,0.00,758.0,WeatherDisplay:10.37,2013-05-12 20:38:00,
2013-05-12 16:43:00,64.3,40.7,30.02,North,355,15.0,15.0,42,0.00,FEW,,0.00,745.0,WeatherDisplay:10.37,2013-05-12 20:43:00,
2013-05-12 16:48:00,64.3,37.5,30.02,NNW,338,13.8,13.8,37,0.00,SCT,,0.00,733.0,WeatherDisplay:10.37,2013-05-12 20:48:00,
2013-05-12 16:53:00,64.2,37.4,30.03,NW,313,15.0,15.0,37,0.00,SCT,,0.00,717.0,WeatherDisplay:10.37,2013-05-12 20:53:00,
2013-05-12 16:58:00,63.9,37.8,30.03,NW,322,17.3,17.3,38,0.00,SCT,,0.00,703.0,WeatherDisplay:10.37,2013-05-12 20:58:00,
2013-05-12 17:03:00,63.8,37.7,30.02,NW,325,12.7,12.7,38,0.00,SCT,,0.00,691.0,WeatherDisplay:10.37,2013-05-12 21:03:00,
2013-05-12 17:08:00,64.0,38.5,30.03,NNW,331,11.5,11.5,39,0.00,SCT,,0.00,675.0,WeatherDisplay:10.37,2013-05-12 21:08:00,
2013-05-12 17:13:00,64.0,37.9,30.04,NNW,327,12.7,12.7,38,0.00,SCT,,0.00,661.0,WeatherDisplay:10.37,2013-05-12 21:13:00,
2013-05-12 17:18:00,64.0,37.9,30.04,NNW,334,13.8,13.8,38,0.00,SCT,,0.00,645.0,WeatherDisplay:10.37,2013-05-12 21:18:00,
2013-05-12 17:23:00,64.0,36.5,30.04,WNW,294,17.3,17.3,36,0.00,SCT,,0.00,629.0,WeatherDisplay:10.37,2013-05-12 21:23:00,
2013-05-12 17:28:00,63.9,35.0,30.05,West,271,12.7,12.7,34,0.00,SCT,,0.00,613.0,WeatherDisplay:10.37,2013-05-12 21:28:00,
2013-05-12 17:33:00,63.7,36.9,30.04,WNW,294,27.0,27.0,37,0.00,SCT,,0.00,596.0,WeatherDisplay:10.37,2013-05-12 21:33:00,
2013-05-12 17:39:00,63.5,36.0,30.05,NW,304,13.0,13.0,36,0.00,SCT,,0.00,578.0,WeatherDisplay:10.37,2013-05-12 21:39:00,
2013-05-12 17:44:00,63.4,37.3,30.04,NW,315,5.8,5.8,38,0.00,BKN,,0.00,561.0,WeatherDisplay:10.37,2013-05-12 21:44:00,
2013-05-12 17:49:00,63.6,37.5,30.05,West,279,9.2,9.2,38,0.00,BKN,,0.00,543.0,WeatherDisplay:10.37,2013-05-12 21:49:00,
2013-05-12 17:54:00,63.7,38.9,30.05,North,360,12.7,12.7,40,0.00,BKN,,0.00,524.0,WeatherDisplay:10.37,2013-05-12 21:54:00,
2013-05-12 17:59:00,63.8,37.7,30.05,WNW,291,10.4,10.4,38,0.00,BKN,,0.00,503.0,WeatherDisplay:10.37,2013-05-12 21:59:00,
2013-05-12 18:04:00,63.7,40.8,30.05,NNW,338,10.4,10.4,43,0.00,BKN,,0.00,485.0,WeatherDisplay:10.37,2013-05-12 22:04:00,
2013-05-12 18:09:00,63.6,35.4,30.05,NNW,344,13.8,13.8,35,0.00,BKN,,0.00,469.0,WeatherDisplay:10.37,2013-05-12 22:09:00,
2013-05-12 18:14:00,63.3,36.6,30.05,North,350,13.8,13.8,37,0.00,BKN,,0.00,454.0,WeatherDisplay:10.37,2013-05-12 22:14:00,
2013-05-12 18:19:00,63.1,39.0,30.06,West,279,12.7,12.7,41,0.00,BKN,,0.00,432.0,WeatherDisplay:10.37,2013-05-12 22:19:00,
2013-05-12 18:24:00,63.2,38.5,30.05,North,355,14.0,14.0,40,0.00,BKN,,0.00,417.0,WeatherDisplay:10.37,2013-05-12 22:24:00,
2013-05-12 18:29:00,63.2,37.8,30.05,NNW,337,13.0,13.0,39,0.00,BKN,,0.00,399.0,WeatherDisplay:10.37,2013-05-12 22:29:00,
2013-05-12 18:34:00,62.9,34.8,30.06,NNW,340,13.8,13.8,35,0.00,BKN,,0.00,380.0,WeatherDisplay:10.37,2013-05-12 22:34:00,
2013-05-12 18:39:00,62.5,34.5,30.06,NW,322,13.8,13.8,35,0.00,BKN,,0.00,366.0,WeatherDisplay:10.37,2013-05-12 22:39:00,
2013-05-12 18:44:00,62.2,34.9,30.06,NNW,332,11.5,11.5,36,0.00,BKN,,0.00,350.0,WeatherDisplay:10.37,2013-05-12 22:44:00,
2013-05-12 18:49:00,62.0,36.7,30.06,NNW,331,15.0,15.0,39,0.00,BKN,,0.00,334.0,WeatherDisplay:10.37,2013-05-12 22:49:00,
2013-05-12 18:54:00,62.0,34.7,30.06,NNW,327,15.0,15.0,36,0.00,BKN,,0.00,234.0,WeatherDisplay:10.37,2013-05-12 22:54:00,
2013-05-12 18:59:00,61.8,35.9,30.06,NNW,348,14.0,14.0,38,0.00,BKN,,0.00,290.0,WeatherDisplay:10.37,2013-05-12 22:59:00,
2013-05-12 19:04:00,61.7,37.7,30.06,NNW,334,0.0,0.0,41,0.00,BKN,,0.00,232.0,WeatherDisplay:10.37,2013-05-12 23:04:00,
2013-05-12 19:09:00,61.8,37.8,30.06,NNW,346,3.5,3.5,41,0.00,BKN,,0.00,160.0,WeatherDisplay:10.37,2013-05-12 23:09:00,
2013-05-12 19:14:00,61.7,36.5,30.06,WNW,288,4.6,4.6,39,0.00,BKN,,0.00,248.0,WeatherDisplay:10.37,2013-05-12 23:14:00,
2013-05-12 19:19:00,61.5,36.9,30.06,WNW,301,11.5,11.5,40,0.00,BKN,,0.00,176.0,WeatherDisplay:10.37,2013-05-12 23:19:00,
2013-05-12 19:24:00,61.1,36.6,30.06,West,261,10.4,10.4,40,0.00,BKN,,0.00,207.0,WeatherDisplay:10.37,2013-05-12 23:24:00,
2013-05-12 19:29:00,60.7,37.5,30.06,WNW,290,11.5,11.5,42,0.00,BKN,,0.00,195.0,WeatherDisplay:10.37,2013-05-12 23:29:00,
2013-05-12 19:34:00,60.5,38.5,30.06,West,270,10.4,10.4,44,0.00,BKN,,0.00,105.0,WeatherDisplay:10.37,2013-05-12 23:34:00,
2013-05-12 19:39:00,60.1,36.3,30.07,WNW,292,6.9,6.9,41,0.00,BKN,,0.00,74.0,WeatherDisplay:10.37,2013-05-12 23:39:00,
2013-05-12 19:44:00,59.6,37.6,30.06,WNW,292,9.2,9.2,44,0.00,BKN,,0.00,102.0,WeatherDisplay:10.37,2013-05-12 23:44:00,
2013-05-12 19:49:00,59.3,37.4,30.07,West,277,11.5,11.5,44,0.00,BKN,,0.00,98.0,WeatherDisplay:10.37,2013-05-12 23:49:00,
2013-05-12 19:54:00,58.9,36.4,30.07,WNW,282,6.9,6.9,43,0.00,BKN,,0.00,53.0,WeatherDisplay:10.37,2013-05-12 23:54:00,
2013-05-12 19:59:00,58.5,35.5,30.07,West,279,6.9,6.9,42,0.00,BKN,,0.00,84.0,WeatherDisplay:10.37,2013-05-12 23:59:00,
2013-05-12 20:04:00,58.2,35.8,30.08,WNW,298,8.0,8.0,43,0.00,CLR,,0.00,49.0,WeatherDisplay:10.37,2013-05-13 00:04:00,
2013-05-12 20:09:00,57.9,36.1,30.08,WNW,293,6.9,6.9,44,0.00,CLR,,0.00,33.0,WeatherDisplay:10.37,2013-05-13 00:09:00,
2013-05-12 20:14:00,57.6,35.8,30.08,WNW,288,6.9,6.9,44,0.00,CLR,,0.00,21.0,WeatherDisplay:10.37,2013-05-13 00:14:00,
2013-05-12 20:19:00,57.2,36.0,30.08,WNW,288,3.5,3.5,45,0.00,CLR,,0.00,12.0,WeatherDisplay:10.37,2013-05-13 00:19:00,
2013-05-12 20:24:00,56.9,35.2,30.08,WNW,292,10.4,10.4,44,0.00,CLR,,0.00,9.0,WeatherDisplay:10.37,2013-05-13 00:24:00,
2013-05-12 20:29:00,56.7,35.0,30.08,NW,314,5.8,5.8,44,0.00,CLR,,0.00,5.0,WeatherDisplay:10.37,2013-05-13 00:29:00,
2013-05-12 20:34:00,56.4,35.3,30.08,NW,319,4.6,4.6,45,0.00,CLR,,0.00,0.0,WeatherDisplay:10.37,2013-05-13 00:34:00,
2013-05-12 20:39:00,56.1,35.6,30.08,NW,319,3.5,3.5,46,0.00,CLR,,0.00,0.0,WeatherDisplay:10.37,2013-05-13 00:39:00,
2013-05-12 20:44:00,55.9,35.4,30.08,NW,319,3.5,3.5,46,0.00,CLR,,0.00,0.0,WeatherDisplay:10.37,2013-05-13 00:44:00,
2013-05-12 20:49:00,55.6,35.7,30.08,NW,319,3.5,3.5,47,0.00,CLR,,0.00,0.0,WeatherDisplay:10.37,2013-05-13 00:49:00,
2013-05-12 20:54:00,55.3,35.9,30.08,NW,319,4.6,4.6,48,0.00,CLR,,0.00,0.0,WeatherDisplay:10.37,2013-05-13 00:54:00,
2013-05-12 20:59:00,55.0,35.7,30.09,NW,319,4.0,4.0,48,0.00,CLR,,0.00,0.0,WeatherDisplay:10.37,2013-05-13 00:59:00,
2013-05-12 21:04:00,54.6,35.3,30.09,NW,319,4.6,4.6,48,0.00,CLR,,0.00,0.0,WeatherDisplay:10.37,2013-05-13 01:04:00,
2013-05-12 21:09:00,54.2,35.4,30.09,NW,320,4.6,4.6,49,0.00,CLR,,0.00,0.0,WeatherDisplay:10.37,2013-05-13 01:09:00,
2013-05-12 21:14:00,53.9,35.2,30.09,NW,320,5.8,5.8,49,0.00,CLR,,0.00,0.0,WeatherDisplay:10.37,2013-05-13 01:14:00,
2013-05-12 21:19:00,53.6,34.9,30.09,NW,320,6.0,6.0,49,0.00,CLR,,0.00,0.0,WeatherDisplay:10.37,2013-05-13 01:19:00,
2013-05-12 21:24:00,53.3,35.1,30.09,NW,321,4.6,4.6,50,0.00,CLR,,0.00,0.0,WeatherDisplay:10.37,2013-05-13 01:24:00,
2013-05-12 21:29:00,53.0,35.3,30.09,NW,321,5.0,5.0,51,0.00,CLR,,0.00,0.0,WeatherDisplay:10.37,2013-05-13 01:29:00,
2013-05-12 21:34:00,52.8,35.2,30.09,NW,325,5.8,5.8,51,0.00,CLR,,0.00,0.0,WeatherDisplay:10.37,2013-05-13 01:34:00,
2013-05-12 21:39:00,52.8,34.7,30.09,NNE,12,6.0,6.0,50,0.00,CLR,,0.00,0.0,WeatherDisplay:10.37,2013-05-13 01:39:00,
2013-05-12 21:44:00,52.9,35.2,30.09,NNE,15,5.8,5.8,51,0.00,CLR,,0.00,0.0,WeatherDisplay:10.37,2013-05-13 01:44:00,
2013-05-12 21:49:00,53.0,35.3,30.09,NNW,344,5.8,5.9,51,0.00,CLR,,0.00,0.0,WeatherDisplay:10.37,2013-05-13 01:49:00,
2013-05-12 21:54:00,53.1,35.4,30.10,North,5,11.0,11.0,51,0.00,CLR,,0.00,0.0,WeatherDisplay:10.37,2013-05-13 01:54:00,
2013-05-12 21:59:00,53.4,34.7,30.10,North,10,11.5,11.5,49,0.00,CLR,,0.00,0.0,WeatherDisplay:10.37,2013-05-13 01:59:00,
2013-05-12 22:04:00,53.9,34.6,30.10,North,5,10.4,10.4,48,0.00,CLR,,0.00,0.0,WeatherDisplay:10.37,2013-05-13 02:04:00,
2013-05-12 22:09:00,53.9,34.6,30.10,North,11,6.9,6.9,48,0.00,CLR,,0.00,0.0,WeatherDisplay:10.37,2013-05-13 02:09:00,
2013-05-12 22:14:00,53.8,34.6,30.10,North,11,10.4,10.4,48,0.00,CLR,,0.00,0.0,WeatherDisplay:10.37,2013-05-13 02:14:00,
2013-05-12 22:19:00,53.7,34.5,30.10,NNE,28,6.9,6.9,48,0.00,CLR,,0.00,0.0,WeatherDisplay:10.37,2013-05-13 02:19:00,
2013-05-12 22:24:00,53.5,34.3,30.11,NNE,17,5.8,5.8,48,0.00,CLR,,0.00,0.0,WeatherDisplay:10.37,2013-05-13 02:24:00,
2013-05-12 22:29:00,53.3,34.6,30.11,NNE,17,6.0,6.0,49,0.00,CLR,,0.00,0.0,WeatherDisplay:10.37,2013-05-13 02:29:00,
2013-05-12 22:34:00,53.0,35.3,30.11,NNE,17,3.5,3.5,51,0.00,CLR,,0.00,0.0,WeatherDisplay:10.37,2013-05-13 02:34:00,
2013-05-12 22:39:00,52.5,35.4,30.11,NNE,17,7.0,7.0,52,0.00,CLR,,0.00,0.0,WeatherDisplay:10.37,2013-05-13 02:39:00,
2013-05-12 22:44:00,52.1,35.5,30.12,North,5,6.9,6.9,53,0.00,CLR,,0.00,0.0,WeatherDisplay:10.37,2013-05-13 02:44:00,
2013-05-12 22:49:00,51.7,36.0,30.12,North,5,4.6,4.6,55,0.00,CLR,,0.00,0.0,WeatherDisplay:10.37,2013-05-13 02:49:00,
2013-05-12 22:54:00,51.2,35.6,30.12,North,5,5.8,5.8,55,0.00,CLR,,0.00,0.0,WeatherDisplay:10.37,2013-05-13 02:54:00,
2013-05-12 22:59:00,50.9,35.3,30.12,NNE,15,6.9,6.9,55,0.00,CLR,,0.00,0.0,WeatherDisplay:10.37,2013-05-13 02:59:00,
2013-05-12 23:04:00,50.8,34.7,30.12,NNE,14,6.9,6.9,54,0.00,CLR,,0.00,0.0,WeatherDisplay:10.37,2013-05-13 03:04:00,
2013-05-12 23:09:00,51.0,34.9,30.12,NNE,27,11.5,11.5,54,0.00,CLR,,0.00,0.0,WeatherDisplay:10.37,2013-05-13 03:09:00,
2013-05-12 23:14:00,50.8,37.4,30.12,NNE,28,5.8,5.8,60,0.00,CLR,,0.00,0.0,WeatherDisplay:10.37,2013-05-13 03:14:00,
2013-05-12 23:19:00,50.2,36.8,30.13,North,360,5.8,5.8,60,0.00,CLR,,0.00,0.0,WeatherDisplay:10.37,2013-05-13 03:19:00,
2013-05-12 23:24:00,49.9,36.6,30.13,North,360,3.5,3.5,60,0.00,CLR,,0.00,0.0,WeatherDisplay:10.37,2013-05-13 03:24:00,
2013-05-12 23:29:00,49.6,35.8,30.12,North,360,3.0,3.0,59,0.00,CLR,,0.00,0.0,WeatherDisplay:10.37,2013-05-13 03:29:00,
2013-05-12 23:34:00,49.4,35.7,30.13,North,360,4.0,4.0,59,0.00,CLR,,0.00,0.0,WeatherDisplay:10.37,2013-05-13 03:34:00,
2013-05-12 23:39:00,49.3,36.0,30.13,North,360,0.0,0.1,60,0.00,CLR,,0.00,0.0,WeatherDisplay:10.37,2013-05-13 03:39:00,
2013-05-12 23:44:00,49.1,35.8,30.13,North,360,3.5,3.5,60,0.00,CLR,,0.00,0.0,WeatherDisplay:10.37,2013-05-13 03:44:00,
2013-05-12 23:49:00,49.1,35.4,30.13,NW,320,10.4,10.4,59,0.00,CLR,,0.00,0.0,WeatherDisplay:10.37,2013-05-13 03:49:00,
2013-05-12 23:54:00,49.2,35.0,30.13,North,350,13.0,13.0,58,0.00,CLR,,0.00,0.0,WeatherDisplay:10.37,2013-05-13 03:54:00,
2013-05-12 23:59:00,49.6,35.0,30.13,North,355,12.7,12.7,57,0.00,CLR,,0.00,0.0,WeatherDisplay:10.37,2013-05-13 03:59:00,